SCP
0 0 0 0 0 0 0 0 0 0 0 0 0 0 0 0 0 0 0 0 0 0 0 0 0 0 0 0 0 0 0 0 0 0 0 0 -0 0 0 0 0 0 0 0 0
0 0 0 0 0 0 0 0 0 0 0 0 0 0 0 0 0 0 0 0 0 0 0 0 0 0 0 0 0 0 0 0 0 0 0 0 0 -0 0 0 0 0 0 0 0
0 0 0 0 0 0 0 0 0 0 0 0 0 0 0 0 0 0 0 0 0 0 0 0 0 0 0 0 0 0 0 0 0 0 0 -0 -0 0 0 0 0 0 0 0 0
0 0 0 0 0 0 0 0 0 0 0 0 0 0 0 0 0 0 0 0 0 0 0 0 0 0 0 0 0 0 0 0 0 0 -0 -0 0 0 0 0 0 0 0 0 0
0 0 0 0 0 0 0 0 0 0 0 0 0 0 0 0 0 0 0 0 0 0 0 0 0 0 0 0 0 0 0 -0 -0 -0 -0 0 0 0 0 0 -0 0 0 0 0
0 0 0 0 0 0 0 0 0 0 0 0 0 0 0 0 0 0 0 0 0 0 0 0 0 0 0 0 0 0 -0 -0 -0 -0 0 0 0 0 0 0 0 0 0 0 0
0 0 0 0 0 0 0 0 0 0 0 0 0 0 0 0 0 0 0 0 0 0 0 0 0 0 0 0 0 -0 -0 -0 0 0 0 0 0 0 0 0 0 0 0 0 0
0 0 0 0 0 0 0 0 0 0 0 0 0 0 0 0 0 0 0 0 0 0 0 0 0 0 0 -0 0 0 0 0 0 0 0 0 0 0 0 0 0 0 0 0 0
0 0 0 0 0 0 0 0 0 0 0 0 0 0 0 0 0 0 0 0 0 0 0 0 0 0 0 0 0 0 0 0 0 0 0 0 0 0 0 0 0 0 0 0 0
0 0 0 0 0 0 0 0 0 0 0 0 0 0 0 0 0 0 0 0 0 0 0 0 0 0 0 0 0 0 0 0 0 0 0 0 0 0 0 0 0 0 0 0 0
0 0 0 0 0 0 0 0 0 0 0 0 0 0 0 0 0 0 0 0 0 0 0 0 0 0 -0 -0 0 0 0 0 0 0 0 0 0 0 0 0 0 0 0 0 0
0 0 0 0 0 0 0 0 0 0 0 0 0 0 -0 0 0 0 -0 0 0 0 0 0 0 -0 -0 0 0 0 0 0 0 0 0 0 0 0 0 0 0 0 0 0 0
0 0 0 0 -0 0 0 0 0 0 0 0 -0 -0 0 0 0 0 0 0 0 0 0 -0 -0 0 0 0 0 0 0 0 0 0 0 0 0 0 0 0 0 0 0 0 0
0 0 0 0 -0 0 -0 0 0 0 -0 -0 -0 0 -0 0 0 -0 -0 -0 -0 -0 -0 0 0 0 0 0 0 0 0 0 0 0 0 0 0 0 0 0 0 0 0 0 0
-0 -0 0 0 0 -0 -0 -0 0 -0 -0 0 -0 -0 -0 -0 -0 -0 -0 -0 -0 -0 0 0 0 0 0 0 0 0 0 0 0 0 0 0 0 0 0 0 0 0 0 0 0
0 0 0 -0 -0 -0 -0 -0 -0 -0 0 0 0 0 0 0 -0 -0 -0 -0 -0 0 0 0 0 0 0 0 0 0 0 0 0 0 0 0 0 0 0 0 0 0 0 0 0
0 0 0 -0 -0 -0 -0 0 0 0 0 0 0 0 -0 0 0 0 0 0 0 0 0 0 0 0 0 0 0 0 0 0 0 0 0 0 0 0 0 0 0 0 0 0 0
-0 -0 -0 -0 -0 0 0 0 0 0 0 0 0 0 0 0 0 0 0 0 0 0 0 0 0 0 0 0 0 0 0 0 0 0 0 0 0 0 0 0 0 0 0 0 0
0 0 0 -0 -0 0 0 0 0 0 0 0 0 0 0 0 0 0 0 0 0 0 0 0 0 0 0 0 0 0 0 0 0 0 0 0 0 0 0 0 0 0 0 0 0
0 0 0 0 0 0 0 0 0 0 0 0 0 0 0 0 0 0 0 0 0 0 0 0 0 0 0 0 0 0 0 0 0 0 0 0 0 0 0 0 0 0 0 0 0
0 0 0 0 0 0 0 0 0 0 0 0 0 0 0 0 0 0 0 0 0 0 0 0 0 0 0 0 0 0 0 0 0 0 0 0 0 0 0 0 0 0 0 0 0
0 0 0 0 0 0 0 0 0 0 0 0 0 0 0 0 0 0 0 0 0 0 0 0 0 0 0 0 0 0 0 0 0 0 0 0 0 0 0 0 0 0 0 -0 0
0 0 0 0 0 0 0 0 0 0 0 0 0 0 0 0 0 0 0 0 0 0 0 0 0 0 0 0 0 0 0 0 0 0 0 0 0 0 0 0 0 0 -0 0 0
0 0 0 0 0 0 0 0 0 0 0 0 0 0 0 0 0 0 0 0 0 0 0 0 0 0 0 0 0 0 0 0 0 0 0 0 0 0 0 0 0 -0 0 0 0
0 0 0 0 0 0 0 0 0 0 0 0 0 0 0 0 0 0 0 0 0 0 0 0 0 0 0 0 0 0 0 0 0 0 0 0 0 0 0 0 0 0 0 0 0
0 0 0 0 0 0 0 0 0 0 0 0 0 0 0 0 0 0 0 0 0 0 0 0 0 0 0 0 0 0 0 0 0 0 0 0 0 0 0 0 0 0 0 0 0
0 0 0 0 0 0 0 0 0 0 0 0 0 0 0 0 0 0 0 0 0 0 0 0 0 0 0 0 0 0 0 0 0 0 0 0 0 0 0 0 0 0 0 0 0
Wind_Speed_500mb
41 43 37 35 30 36 39 38 44 48 42 38 34 28 24 21 17 19 15 12 10 11 10 10 8 10 13 13 11 5 8 1 4 4 5 7 11 6 14 19 16 14 20 30 42
40 37 35 29 34 37 38 42 45 41 38 36 37 33 35 37 28 22 18 15 12 7 7 6 9 11 11 8 7 9 7 11 6 4 6 10 4 19 10 16 15 20 23 22 24
33 30 26 29 36 39 40 43 38 34 33 25 16 9 11 15 14 18 20 13 11 9 7 7 10 11 9 7 7 4 8 4 6 6 6 8 11 5 5 10 14 27 33 33 34
26 26 26 31 33 33 35 34 29 28 22 13 10 6 4 7 7 12 15 9 9 6 5 6 5 6 6 5 2 1 7 5 6 5 7 8 15 11 17 16 28 22 31 39 40
29 30 30 31 29 30 28 26 25 22 12 9 6 5 11 18 14 12 12 8 7 6 6 7 7 7 8 4 1 2 4 7 16 28 33 21 22 16 35 29 12 18 30 35 29
24 25 26 26 26 25 24 22 20 14 12 12 6 9 10 17 13 12 8 10 9 9 9 8 8 9 9 3 3 4 12 23 15 14 15 9 9 2 4 3 11 39 33 26 32
16 16 17 20 22 22 20 18 17 16 15 9 17 27 28 17 17 16 9 9 12 13 12 13 11 4 5 4 5 7 12 12 0 10 5 16 0 11 4 13 32 43 37 25 35
10 10 9 12 15 15 15 15 13 12 7 8 9 9 14 17 20 16 11 7 9 10 11 10 8 10 5 4 6 8 8 10 4 14 2 5 14 8 13 22 59 48 25 26 34
7 7 8 8 8 9 10 13 13 9 9 8 10 9 8 13 17 22 17 12 10 12 13 10 8 8 6 6 8 13 4 4 16 7 7 9 15 18 23 54 48 33 19 27 31
9 5 3 6 10 8 12 14 16 8 9 11 11 9 8 5 9 18 12 9 7 8 8 6 9 7 9 10 3 6 8 7 11 8 9 10 24 19 41 32 33 21 15 27 30
12 7 3 3 8 12 19 15 9 10 28 17 11 9 8 6 12 16 12 7 7 8 7 9 12 4 5 2 4 2 6 8 8 9 14 10 26 34 39 20 10 2 17 25 28
14 7 8 4 11 15 13 1 7 18 18 15 13 12 13 7 3 21 9 4 8 7 6 11 5 7 2 2 4 8 6 8 10 3 7 12 32 16 7 4 9 9 17 21 27
20 12 5 9 9 13 10 12 18 12 7 7 12 9 10 8 7 19 16 8 9 7 6 10 7 2 3 1 2 5 6 3 6 15 3 14 11 9 6 8 8 10 14 16 22
29 18 9 4 5 12 10 16 9 4 9 17 14 11 12 6 8 15 11 2 5 6 7 6 1 1 3 4 2 7 3 5 10 11 6 10 9 8 6 4 7 14 17 20 23
30 26 15 8 6 11 12 18 6 3 8 7 6 8 8 2 6 9 10 3 5 3 5 1 2 4 4 2 2 6 5 6 2 4 7 2 4 12 6 3 4 11 17 22 24
22 24 19 16 14 15 16 12 1 12 5 7 5 9 5 6 5 8 3 6 5 5 6 4 0 2 2 3 1 9 5 7 7 4 3 2 7 9 6 5 1 6 16 20 25
16 25 23 15 13 18 13 5 10 12 5 6 5 7 2 7 6 10 7 12 7 9 13 11 2 2 4 6 3 14 11 8 10 8 8 6 1 15 5 4 4 6 15 20 23
14 20 25 18 10 6 3 9 14 4 4 2 2 4 5 8 5 12 5 8 9 9 6 7 11 3 4 5 2 6 5 8 9 5 10 8 11 9 6 6 8 11 12 16 19
14 2 23 18 9 1 3 11 10 9 2 5 3 7 7 5 5 11 4 5 3 3 7 4 9 1 5 2 4 3 2 5 4 2 3 7 13 12 5 5 11 16 31 26 14
12 4 21 18 11 5 8 7 5 4 4 2 2 4 4 8 10 10 2 4 5 1 3 7 8 1 1 2 7 2 9 5 5 2 9 10 11 9 11 12 10 11 19 39 24
11 1 16 18 8 4 7 8 5 2 3 4 1 3 1 5 2 4 4 2 5 5 4 6 6 8 2 7 11 3 1 5 4 7 8 5 11 12 16 16 17 9 27 39 30
6 3 11 12 4 6 5 4 3 4 2 1 3 4 5 1 5 5 7 7 14 14 7 2 7 7 16 0 3 3 8 11 7 9 7 5 13 3 12 16 19 16 33 40 16
9 3 9 11 6 1 3 1 3 5 3 5 2 7 3 3 5 7 4 4 11 9 11 10 0 7 16 9 5 6 7 7 6 3 14 6 12 4 2 8 14 28 43 33 5
14 6 6 11 10 8 3 2 3 5 3 6 4 4 3 4 7 6 4 4 6 7 6 14 8 15 14 11 6 7 10 8 8 5 15 27 51 25 22 28 41 61 56 11 10
8 4 2 2 5 5 2 2 3 5 5 9 2 9 11 5 3 8 3 8 2 4 7 5 11 11 16 16 13 24 23 26 30 35 23 51 36 31 19 17 30 26 7 7 11
5 8 5 1 2 5 3 7 8 5 9 6 7 3 11 12 14 8 6 5 13 2 9 0 9 4 8 18 27 37 30 37 43 47 44 44 53 34 42 15 8 3 2 9 20
2 1 5 6 3 4 6 4 6 0 2 4 5 2 8 16 26 28 30 31 27 14 14 12 8 3 12 3 12 17 21 31 8 10 14 18 14 5 3 10 10 7 7 14 34
Wind_Direction_500mb
85 93 97 102 105 119 125 129 129 125 124 122 125 125 126 141 123 132 91 56 61 90 97 107 106 94 94 73 60 74 59 327 245 207 266 304 8 292 313 283 294 280 282 297 299
95 89 91 103 115 118 127 131 130 129 126 118 124 121 113 110 118 112 74 63 70 89 100 128 107 92 69 65 46 76 101 220 210 207 243 300 281 312 317 306 296 307 321 330 322
83 89 96 104 112 121 130 137 135 132 130 120 127 145 146 123 102 47 62 63 59 69 95 95 94 80 73 59 34 113 184 209 258 236 268 276 277 238 256 293 283 321 330 338 335
77 81 87 99 104 116 130 136 135 138 131 116 117 114 160 122 108 53 52 58 55 70 118 117 106 77 77 84 65 305 239 227 283 252 289 272 302 285 239 252 317 324 332 331 328
81 85 89 93 100 111 120 124 133 141 117 112 111 77 112 94 78 58 46 47 55 72 132 137 128 112 134 144 316 171 289 267 277 288 289 283 260 256 274 290 299 329 328 330 331
85 88 91 95 101 107 110 116 129 135 116 101 60 81 101 75 68 36 33 45 73 92 105 139 127 119 115 127 130 316 290 291 307 299 281 284 281 156 264 128 332 330 338 335 334
68 84 97 104 109 112 111 114 123 124 121 86 97 83 87 77 51 28 31 51 66 90 94 101 110 121 119 66 347 329 345 334 353 324 304 315 140 218 269 282 333 343 337 331 341
60 63 85 111 118 117 112 113 120 124 103 82 81 66 78 61 47 28 33 40 76 83 91 78 96 100 57 353 29 36 48 18 298 344 301 22 278 261 322 316 322 331 333 335 345
64 84 93 91 102 106 110 115 124 117 90 67 49 76 74 68 46 40 45 59 80 81 66 68 90 66 42 52 23 11 331 344 316 47 346 60 276 278 302 310 308 319 327 337 344
57 70 93 134 121 100 123 116 102 95 85 69 45 68 53 29 42 26 19 56 79 99 79 50 56 64 33 41 226 317 335 292 255 305 5 296 270 284 301 295 297 307 332 345 350
49 58 54 202 185 153 138 119 128 79 75 68 56 74 43 68 49 12 25 91 72 71 49 33 66 104 229 190 120 178 239 261 265 314 345 290 291 294 298 292 283 335 350 355 357
53 69 48 96 165 170 170 263 143 128 90 67 68 60 54 33 23 15 34 115 56 57 28 29 104 214 226 77 227 230 271 298 275 269 336 329 301 298 329 76 105 30 353 352 360
37 42 93 93 158 174 168 138 127 135 103 54 37 35 28 33 34 7 26 61 77 59 21 137 183 154 79 57 279 241 218 221 249 326 265 300 304 352 14 89 65 15 340 351 358
30 40 41 131 141 169 172 158 125 95 74 326 2 20 9 10 12 6 15 78 54 148 152 102 133 143 196 180 178 341 194 30 329 15 288 20 277 312 342 37 17 357 0 359 2
32 24 46 113 142 152 162 161 125 49 54 279 319 336 347 47 325 8 16 42 117 106 99 204 116 4 77 31 295 247 18 280 220 185 15 351 71 271 341 286 330 339 355 355 350
34 40 42 58 96 128 144 162 250 44 264 358 316 358 27 6 354 322 39 59 84 96 22 93 157 117 215 288 249 315 20 59 58 96 15 262 141 278 206 202 129 358 3 358 359
48 44 52 69 100 113 124 141 38 102 302 328 332 5 289 319 355 28 43 16 58 48 13 346 19 352 27 13 48 27 34 338 351 5 226 341 354 247 269 184 117 16 15 18 16
37 56 50 71 113 144 360 59 72 187 221 318 314 301 46 2 7 1 56 30 33 74 85 67 331 34 357 89 172 41 116 147 250 267 281 311 238 252 224 157 104 77 46 37 38
9 89 29 42 40 338 177 55 186 204 221 345 327 69 340 9 17 27 54 187 185 56 115 62 281 32 47 103 101 135 80 160 115 264 17 254 287 304 167 139 103 84 46 10 17
356 170 21 13 9 10 73 185 180 207 152 107 49 33 330 319 5 19 274 185 159 81 94 184 316 43 24 88 41 112 153 62 5 299 262 281 277 236 218 190 160 88 34 4 345
334 173 6 2 10 19 117 211 200 127 23 59 213 315 317 321 354 299 270 253 173 133 77 127 114 291 7 198 184 103 167 70 135 176 209 275 260 212 205 195 167 124 354 346 328
329 39 354 2 47 54 112 189 147 166 114 118 130 204 211 237 268 260 240 229 175 150 141 92 149 276 239 165 360 196 203 162 139 256 245 207 265 302 245 187 148 354 6 356 322
329 325 351 1 121 45 274 123 184 149 207 154 236 202 168 233 275 215 276 15 162 153 164 188 259 343 329 6 16 222 206 180 139 77 213 189 259 211 184 260 308 346 340 328 48
325 353 42 53 72 113 99 245 216 194 215 185 188 120 112 252 213 286 292 13 208 219 242 176 185 193 224 230 165 218 205 213 173 202 271 234 267 262 292 299 327 332 317 275 113
347 341 1 321 21 88 63 327 231 228 204 198 199 200 178 240 241 225 212 346 255 277 189 160 208 236 254 275 272 266 254 250 244 246 241 270 254 279 279 292 307 308 312 121 29
360 340 332 217 226 136 151 220 214 273 165 240 212 181 194 201 198 208 161 174 226 106 184 132 263 90 274 246 251 267 262 250 246 258 260 268 273 278 289 274 280 346 83 10 353
121 67 335 329 20 91 238 174 158 301 289 324 177 78 274 257 268 273 265 255 239 192 201 177 186 355 273 360 316 296 244 233 232 208 218 245 256 272 293 300 300 285 256 335 341
Wind_Speed_850mb
41 43 37 35 30 36 39 38 44 48 42 38 34 28 24 21 17 19 15 12 10 11 10 10 8 10 13 13 11 5 8 1 4 4 5 7 11 6 14 19 16 14 20 30 42
40 37 35 29 34 37 38 42 45 41 38 36 37 33 35 37 28 22 18 15 12 7 7 6 9 11 11 8 7 9 7 11 6 4 6 10 4 19 10 16 15 20 23 22 24
33 30 26 29 36 39 40 43 38 34 33 25 16 9 11 15 14 18 20 13 11 9 7 7 10 11 9 7 7 4 8 4 6 6 6 8 11 5 5 10 14 27 33 33 34
26 26 26 31 33 33 35 34 29 28 22 13 10 6 4 7 7 12 15 9 9 6 5 6 5 6 6 5 2 1 7 5 6 5 7 8 15 11 17 16 28 22 31 39 40
29 30 30 31 29 30 28 26 25 22 12 9 6 5 11 18 14 12 12 8 7 6 6 7 7 7 8 4 1 2 4 7 16 28 33 21 22 16 35 29 12 18 30 35 29
24 25 26 26 26 25 24 22 20 14 12 12 6 9 10 17 13 12 8 10 9 9 9 8 8 9 9 3 3 4 12 23 15 14 15 9 9 2 4 3 11 39 33 26 32
16 16 17 20 22 22 20 18 17 16 15 9 17 27 28 17 17 16 9 9 12 13 12 13 11 4 5 4 5 7 12 12 0 10 5 16 0 11 4 13 32 43 37 25 35
10 10 9 12 15 15 15 15 13 12 7 8 9 9 14 17 20 16 11 7 9 10 11 10 8 10 5 4 6 8 8 10 4 14 2 5 14 8 13 22 59 48 25 26 34
7 7 8 8 8 9 10 13 13 9 9 8 10 9 8 13 17 22 17 12 10 12 13 10 8 8 6 6 8 13 4 4 16 7 7 9 15 18 23 54 48 33 19 27 31
9 5 3 6 10 8 12 14 16 8 9 11 11 9 8 5 9 18 12 9 7 8 8 6 9 7 9 10 3 6 8 7 11 8 9 10 24 19 41 32 33 21 15 27 30
12 7 3 3 8 12 19 15 9 10 28 17 11 9 8 6 12 16 12 7 7 8 7 9 12 4 5 2 4 2 6 8 8 9 14 10 26 34 39 20 10 2 17 25 28
14 7 8 4 11 15 13 1 7 18 18 15 13 12 13 7 3 21 9 4 8 7 6 11 5 7 2 2 4 8 6 8 10 3 7 12 32 16 7 4 9 9 17 21 27
20 12 5 9 9 13 10 12 18 12 7 7 12 9 10 8 7 19 16 8 9 7 6 10 7 2 3 1 2 5 6 3 6 15 3 14 11 9 6 8 8 10 14 16 22
29 18 9 4 5 12 10 16 9 4 9 17 14 11 12 6 8 15 11 2 5 6 7 6 1 1 3 4 2 7 3 5 10 11 6 10 9 8 6 4 7 14 17 20 23
30 26 15 8 6 11 12 18 6 3 8 7 6 8 8 2 6 9 10 3 5 3 5 1 2 4 4 2 2 6 5 6 2 4 7 2 4 12 6 3 4 11 17 22 24
22 24 19 16 14 15 16 12 1 12 5 7 5 9 5 6 5 8 3 6 5 5 6 4 0 2 2 3 1 9 5 7 7 4 3 2 7 9 6 5 1 6 16 20 25
16 25 23 15 13 18 13 5 10 12 5 6 5 7 2 7 6 10 7 12 7 9 13 11 2 2 4 6 3 14 11 8 10 8 8 6 1 15 5 4 4 6 15 20 23
14 20 25 18 10 6 3 9 14 4 4 2 2 4 5 8 5 12 5 8 9 9 6 7 11 3 4 5 2 6 5 8 9 5 10 8 11 9 6 6 8 11 12 16 19
14 2 23 18 9 1 3 11 10 9 2 5 3 7 7 5 5 11 4 5 3 3 7 4 9 1 5 2 4 3 2 5 4 2 3 7 13 12 5 5 11 16 31 26 14
12 4 21 18 11 5 8 7 5 4 4 2 2 4 4 8 10 10 2 4 5 1 3 7 8 1 1 2 7 2 9 5 5 2 9 10 11 9 11 12 10 11 19 39 24
11 1 16 18 8 4 7 8 5 2 3 4 1 3 1 5 2 4 4 2 5 5 4 6 6 8 2 7 11 3 1 5 4 7 8 5 11 12 16 16 17 9 27 39 30
6 3 11 12 4 6 5 4 3 4 2 1 3 4 5 1 5 5 7 7 14 14 7 2 7 7 16 0 3 3 8 11 7 9 7 5 13 3 12 16 19 16 33 40 16
9 3 9 11 6 1 3 1 3 5 3 5 2 7 3 3 5 7 4 4 11 9 11 10 0 7 16 9 5 6 7 7 6 3 14 6 12 4 2 8 14 28 43 33 5
14 6 6 11 10 8 3 2 3 5 3 6 4 4 3 4 7 6 4 4 6 7 6 14 8 15 14 11 6 7 10 8 8 5 15 27 51 25 22 28 41 61 56 11 10
8 4 2 2 5 5 2 2 3 5 5 9 2 9 11 5 3 8 3 8 2 4 7 5 11 11 16 16 13 24 23 26 30 35 23 51 36 31 19 17 30 26 7 7 11
5 8 5 1 2 5 3 7 8 5 9 6 7 3 11 12 14 8 6 5 13 2 9 0 9 4 8 18 27 37 30 37 43 47 44 44 53 34 42 15 8 3 2 9 20
2 1 5 6 3 4 6 4 6 0 2 4 5 2 8 16 26 28 30 31 27 14 14 12 8 3 12 3 12 17 21 31 8 10 14 18 14 5 3 10 10 7 7 14 34
Wind_Direction_850mb
85 93 97 102 105 119 125 129 129 125 124 122 125 125 126 141 123 132 91 56 61 90 97 107 106 94 94 73 60 74 59 327 245 207 266 304 8 292 313 283 294 280 282 297 299
95 89 91 103 115 118 127 131 130 129 126 118 124 121 113 110 118 112 74 63 70 89 100 128 107 92 69 65 46 76 101 220 210 207 243 300 281 312 317 306 296 307 321 330 322
83 89 96 104 112 121 130 137 135 132 130 120 127 145 146 123 102 47 62 63 59 69 95 95 94 80 73 59 34 113 184 209 258 236 268 276 277 238 256 293 283 321 330 338 335
77 81 87 99 104 116 130 136 135 138 131 116 117 114 160 122 108 53 52 58 55 70 118 117 106 77 77 84 65 305 239 227 283 252 289 272 302 285 239 252 317 324 332 331 328
81 85 89 93 100 111 120 124 133 141 117 112 111 77 112 94 78 58 46 47 55 72 132 137 128 112 134 144 316 171 289 267 277 288 289 283 260 256 274 290 299 329 328 330 331
85 88 91 95 101 107 110 116 129 135 116 101 60 81 101 75 68 36 33 45 73 92 105 139 127 119 115 127 130 316 290 291 307 299 281 284 281 156 264 128 332 330 338 335 334
68 84 97 104 109 112 111 114 123 124 121 86 97 83 87 77 51 28 31 51 66 90 94 101 110 121 119 66 347 329 345 334 353 324 304 315 140 218 269 282 333 343 337 331 341
60 63 85 111 118 117 112 113 120 124 103 82 81 66 78 61 47 28 33 40 76 83 91 78 96 100 57 353 29 36 48 18 298 344 301 22 278 261 322 316 322 331 333 335 345
64 84 93 91 102 106 110 115 124 117 90 67 49 76 74 68 46 40 45 59 80 81 66 68 90 66 42 52 23 11 331 344 316 47 346 60 276 278 302 310 308 319 327 337 344
57 70 93 134 121 100 123 116 102 95 85 69 45 68 53 29 42 26 19 56 79 99 79 50 56 64 33 41 226 317 335 292 255 305 5 296 270 284 301 295 297 307 332 345 350
49 58 54 202 185 153 138 119 128 79 75 68 56 74 43 68 49 12 25 91 72 71 49 33 66 104 229 190 120 178 239 261 265 314 345 290 291 294 298 292 283 335 350 355 357
53 69 48 96 165 170 170 263 143 128 90 67 68 60 54 33 23 15 34 115 56 57 28 29 104 214 226 77 227 230 271 298 275 269 336 329 301 298 329 76 105 30 353 352 360
37 42 93 93 158 174 168 138 127 135 103 54 37 35 28 33 34 7 26 61 77 59 21 137 183 154 79 57 279 241 218 221 249 326 265 300 304 352 14 89 65 15 340 351 358
30 40 41 131 141 169 172 158 125 95 74 326 2 20 9 10 12 6 15 78 54 148 152 102 133 143 196 180 178 341 194 30 329 15 288 20 277 312 342 37 17 357 0 359 2
32 24 46 113 142 152 162 161 125 49 54 279 319 336 347 47 325 8 16 42 117 106 99 204 116 4 77 31 295 247 18 280 220 185 15 351 71 271 341 286 330 339 355 355 350
34 40 42 58 96 128 144 162 250 44 264 358 316 358 27 6 354 322 39 59 84 96 22 93 157 117 215 288 249 315 20 59 58 96 15 262 141 278 206 202 129 358 3 358 359
48 44 52 69 100 113 124 141 38 102 302 328 332 5 289 319 355 28 43 16 58 48 13 346 19 352 27 13 48 27 34 338 351 5 226 341 354 247 269 184 117 16 15 18 16
37 56 50 71 113 144 360 59 72 187 221 318 314 301 46 2 7 1 56 30 33 74 85 67 331 34 357 89 172 41 116 147 250 267 281 311 238 252 224 157 104 77 46 37 38
9 89 29 42 40 338 177 55 186 204 221 345 327 69 340 9 17 27 54 187 185 56 115 62 281 32 47 103 101 135 80 160 115 264 17 254 287 304 167 139 103 84 46 10 17
356 170 21 13 9 10 73 185 180 207 152 107 49 33 330 319 5 19 274 185 159 81 94 184 316 43 24 88 41 112 153 62 5 299 262 281 277 236 218 190 160 88 34 4 345
334 173 6 2 10 19 117 211 200 127 23 59 213 315 317 321 354 299 270 253 173 133 77 127 114 291 7 198 184 103 167 70 135 176 209 275 260 212 205 195 167 124 354 346 328
329 39 354 2 47 54 112 189 147 166 114 118 130 204 211 237 268 260 240 229 175 150 141 92 149 276 239 165 360 196 203 162 139 256 245 207 265 302 245 187 148 354 6 356 322
329 325 351 1 121 45 274 123 184 149 207 154 236 202 168 233 275 215 276 15 162 153 164 188 259 343 329 6 16 222 206 180 139 77 213 189 259 211 184 260 308 346 340 328 48
325 353 42 53 72 113 99 245 216 194 215 185 188 120 112 252 213 286 292 13 208 219 242 176 185 193 224 230 165 218 205 213 173 202 271 234 267 262 292 299 327 332 317 275 113
347 341 1 321 21 88 63 327 231 228 204 198 199 200 178 240 241 225 212 346 255 277 189 160 208 236 254 275 272 266 254 250 244 246 241 270 254 279 279 292 307 308 312 121 29
360 340 332 217 226 136 151 220 214 273 165 240 212 181 194 201 198 208 161 174 226 106 184 132 263 90 274 246 251 267 262 250 246 258 260 268 273 278 289 274 280 346 83 10 353
121 67 335 329 20 91 238 174 158 301 289 324 177 78 274 257 268 273 265 255 239 192 201 177 186 355 273 360 316 296 244 233 232 208 218 245 256 272 293 300 300 285 256 335 341